| time (UTC) | temp C | wind direction | speed KPH | gust KPH | rain 1hr cm | rain 24hr cm | rain mn cm | humidity % | barometer mb |
| 20260505091015 | 7 | 0 | 1.6 | 8.0 | 0.00 | 0.00 | 0.00 | 87 | 1011.1 |
| 20260505090516 | 6 | 167 | 1.6 | 6.4 | 0.00 | 0.00 | 0.00 | 86 | 1011.0 |
| 20260505090036 | 7 | 0 | 0.0 | 4.8 | 0.00 | 0.00 | 0.00 | 84 | 1011.0 |
| 20260505085517 | 7 | 167 | 1.6 | 6.4 | 0.00 | 0.00 | 0.00 | 83 | 1010.9 |
| 20260505085018 | 7 | 167 | 3.2 | 6.4 | 0.00 | 0.00 | 0.00 | 85 | 1010.8 |
| 20260505084541 | 7 | 167 | 4.8 | 6.4 | 0.00 | 0.00 | 0.00 | 86 | 1010.7 |
| 20260505084015 | 7 | 167 | 3.2 | 9.7 | 0.00 | 0.00 | 0.00 | 86 | 1010.6 |
| 20260505083515 | 7 | 151 | 3.2 | 9.7 | 0.00 | 0.00 | 0.00 | 87 | 1010.6 |
| 20260505083033 | 7 | 159 | 3.2 | 6.4 | 0.00 | 0.00 | 0.00 | 85 | 1010.4 |
| 20260505082516 | 7 | 142 | 1.6 | 6.4 | 0.00 | 0.00 | 0.00 | 84 | 1010.4 |
| 20260505082016 | 7 | 165 | 1.6 | 6.4 | 0.00 | 0.00 | 0.00 | 86 | 1010.4 |
| 20260505081532 | 7 | 0 | 0.0 | 1.6 | 0.00 | 0.00 | 0.00 | 85 | 1010.2 |
| 20260505081017 | 7 | 0 | 0.0 | 1.6 | 0.00 | 0.00 | 0.00 | 82 | 1010.2 |
| 20260505080519 | 8 | 0 | 0.0 | 0.0 | 0.00 | 0.00 | 0.00 | 85 | 1010.2 |
| 20260505080033 | 7 | 0 | 0.0 | 1.6 | 0.00 | 0.00 | 0.00 | 85 | 1010.1 |
| 20260505075516 | 7 | 0 | 0.0 | 1.6 | 0.00 | 0.00 | 0.00 | 85 | 1010.1 |
| 20260505075020 | 7 | 128 | 0.0 | 1.6 | 0.00 | 0.00 | 0.00 | 84 | 1010.0 |
| 20260505074536 | 7 | 0 | 0.0 | 3.2 | 0.00 | 0.00 | 0.00 | 84 | 1010.0 |
| 20260505074016 | 7 | 0 | 0.0 | 3.2 | 0.00 | 0.00 | 0.00 | 82 | 1009.9 |
| 20260505073516 | 8 | 128 | 1.6 | 3.2 | 0.00 | 0.00 | 0.00 | 80 | 1009.9 |
| 20260505073040 | 8 | 0 | 0.0 | 1.6 | 0.00 | 0.00 | 0.00 | 81 | 1009.9 |
| 20260505072517 | 8 | 0 | 0.0 | 6.4 | 0.00 | 0.00 | 0.00 | 82 | 1009.8 |
| 20260505072015 | 8 | 0 | 0.0 | 6.4 | 0.00 | 0.00 | 0.00 | 81 | 1009.8 |
| 20260505071532 | 9 | 0 | 0.0 | 4.8 | 0.00 | 0.00 | 0.00 | 80 | 1009.7 |
| 20260505071019 | 9 | 173 | 1.6 | 4.8 | 0.00 | 0.00 | 0.00 | 81 | 1009.7 |
| 20260505070516 | 9 | 173 | 1.6 | 4.8 | 0.00 | 0.00 | 0.00 | 81 | 1009.7 |
| 20260505070039 | 9 | 173 | 1.6 | 4.8 | 0.00 | 0.00 | 0.00 | 82 | 1009.7 |
| 20260505065517 | 9 | 173 | 0.0 | 4.8 | 0.00 | 0.00 | 0.00 | 81 | 1009.7 |
| 20260505065017 | 9 | 173 | 1.6 | 4.8 | 0.00 | 0.00 | 0.00 | 81 | 1009.6 |
| 20260505064533 | 9 | 173 | 1.6 | 4.8 | 0.00 | 0.00 | 0.00 | 80 | 1009.5 |
| 20260505064016 | 10 | 173 | 0.0 | 4.8 | 0.00 | 0.00 | 0.00 | 81 | 1009.5 |
| 20260505063516 | 10 | 184 | 1.6 | 4.8 | 0.00 | 0.00 | 0.00 | 82 | 1009.5 |
| 20260505063036 | 9 | 207 | 0.0 | 4.8 | 0.00 | 0.00 | 0.00 | 81 | 1009.5 |
| 20260505062516 | 9 | 165 | 0.0 | 3.2 | 0.00 | 0.00 | 0.00 | 80 | 1009.5 |
| 20260505062015 | 10 | 165 | 0.0 | 1.6 | 0.00 | 0.00 | 0.00 | 81 | 1009.3 |
| 20260505061540 | 10 | 0 | 0.0 | 1.6 | 0.00 | 0.00 | 0.00 | 79 | 1009.3 |
| 20260505061017 | 10 | 0 | 0.0 | 4.8 | 0.00 | 0.00 | 0.00 | 77 | 1009.3 |
| 20260505060521 | 11 | 0 | 0.0 | 4.8 | 0.00 | 0.00 | 0.00 | 77 | 1009.2 |
| 20260505060036 | 11 | 166 | 1.6 | 6.4 | 0.00 | 0.00 | 0.00 | 76 | 1009.4 |
| 20260505055516 | 11 | 0 | 1.6 | 6.4 | 0.00 | 0.00 | 0.00 | 77 | 1009.3 |
| 20260505055015 | 11 | 110 | 0.0 | 4.8 | 0.00 | 0.00 | 0.00 | 79 | 1009.2 |
| 20260505054538 | 10 | 110 | 1.6 | 4.8 | 0.00 | 0.00 | 0.00 | 79 | 1009.2 |
| 20260505054016 | 11 | 105 | 1.6 | 4.8 | 0.00 | 0.00 | 0.00 | 77 | 1009.2 |
| 20260505053520 | 11 | 105 | 1.6 | 4.8 | 0.00 | 0.00 | 0.00 | 75 | 1009.1 |
| 20260505053034 | 12 | 0 | 0.0 | 6.4 | 0.00 | 0.00 | 0.00 | 75 | 1009.1 |
| 20260505052516 | 12 | 235 | 0.0 | 6.4 | 0.00 | 0.00 | 0.00 | 75 | 1009.0 |
| 20260505052016 | 12 | 178 | 1.6 | 6.4 | 0.00 | 0.00 | 0.00 | 73 | 1009.0 |
| 20260505051532 | 12 | 119 | 0.0 | 3.2 | 0.00 | 0.00 | 0.00 | 72 | 1009.0 |
| 20260505051016 | 12 | 0 | 0.0 | 4.8 | 0.00 | 0.00 | 0.00 | 72 | 1008.9 |
| 20260505050521 | 12 | 119 | 0.0 | 4.8 | 0.00 | 0.00 | 0.00 | 72 | 1008.8 |
| 20260505041549 | 16 | 132 | 1.6 | 6.4 | 0.00 | 0.00 | 0.00 | 58 | 1008.1 |
| 20260505041017 | 16 | 144 | 3.2 | 6.4 | 0.00 | 0.00 | 0.00 | 59 | 1008.0 |
| 20260505040516 | 16 | 115 | 0.0 | 6.4 | 0.00 | 0.00 | 0.00 | 61 | 1007.9 |
| 20260505040048 | 16 | 144 | 1.6 | 4.8 | 0.00 | 0.00 | 0.00 | 61 | 1007.7 |
| 20260505035517 | 16 | 0 | 1.6 | 4.8 | 0.00 | 0.00 | 0.00 | 61 | 1007.7 |
| 20260505035016 | 16 | 144 | 1.6 | 4.8 | 0.00 | 0.00 | 0.00 | 60 | 1007.7 |
| 20260505034535 | 16 | 144 | 0.0 | 4.8 | 0.00 | 0.00 | 0.00 | 60 | 1007.6 |
| 20260505034016 | 17 | 0 | 0.0 | 4.8 | 0.00 | 0.00 | 0.00 | 59 | 1007.6 |
| 20260505033517 | 18 | 144 | 1.6 | 4.8 | 0.00 | 0.00 | 0.00 | 58 | 1007.5 |
| 20260505033034 | 18 | 144 | 0.0 | 4.8 | 0.00 | 0.00 | 0.00 | 55 | 1007.4 |
| 20260505032516 | 18 | 144 | 0.0 | 6.4 | 0.00 | 0.00 | 0.00 | 56 | 1007.3 |
| 20260505032019 | 19 | 0 | 1.6 | 6.4 | 0.00 | 0.00 | 0.00 | 53 | 1007.1 |
| 20260505031541 | 20 | 144 | 3.2 | 6.4 | 0.00 | 0.00 | 0.00 | 50 | 1007.2 |
| 20260505031015 | 20 | 144 | 0.0 | 6.4 | 0.00 | 0.00 | 0.00 | 51 | 1007.0 |
| 20260505030517 | 20 | 168 | 1.6 | 6.4 | 0.00 | 0.00 | 0.00 | 50 | 1007.0 |
| 20260505030035 | 20 | 0 | 0.0 | 4.8 | 0.00 | 0.00 | 0.00 | 52 | 1006.9 |
| 20260505025517 | 20 | 122 | 1.6 | 6.4 | 0.00 | 0.00 | 0.00 | 53 | 1007.0 |
| 20260505025021 | 21 | 90 | 3.2 | 6.4 | 0.00 | 0.00 | 0.00 | 55 | 1006.9 |
| 20260505024533 | 22 | 0 | 0.0 | 1.6 | 0.00 | 0.00 | 0.00 | 44 | 1006.9 |
| 20260505024016 | 22 | 0 | 0.0 | 3.2 | 0.00 | 0.00 | 0.00 | 42 | 1006.8 |
| 20260505023516 | 22 | 186 | 0.0 | 3.2 | 0.00 | 0.00 | 0.00 | 42 | 1006.8 |
| 20260505023031 | 23 | 0 | 0.0 | 3.2 | 0.00 | 0.00 | 0.00 | 40 | 1006.8 |
| 20260505022516 | 23 | 0 | 0.0 | 4.8 | 0.00 | 0.00 | 0.00 | 42 | 1006.8 |
| 20260505022016 | 23 | 0 | 1.6 | 6.4 | 0.00 | 0.00 | 0.00 | 35 | 1006.8 |
| 20260505021536 | 23 | 0 | 3.2 | 9.7 | 0.00 | 0.00 | 0.00 | 35 | 1006.8 |
| 20260505021016 | 23 | 155 | 4.8 | 14.5 | 0.00 | 0.00 | 0.00 | 37 | 1006.8 |
| 20260505020517 | 23 | 138 | 6.4 | 14.5 | 0.00 | 0.00 | 0.00 | 38 | 1006.8 |
| 20260505020035 | 23 | 132 | 9.7 | 14.5 | 0.00 | 0.00 | 0.00 | 36 | 1006.8 |
| 20260505015517 | 23 | 112 | 9.7 | 17.7 | 0.00 | 0.00 | 0.00 | 37 | 1006.7 |
| 20260505015018 | 23 | 108 | 11.3 | 17.7 | 0.00 | 0.00 | 0.00 | 37 | 1006.7 |
| 20260505014548 | 24 | 100 | 9.7 | 19.3 | 0.00 | 0.00 | 0.00 | 35 | 1006.7 |
| 20260505014016 | 25 | 75 | 11.3 | 19.3 | 0.00 | 0.00 | 0.00 | 33 | 1006.7 |
| 20260505013516 | 25 | 73 | 6.4 | 14.5 | 0.00 | 0.00 | 0.00 | 32 | 1006.6 |
| 20260505013033 | 26 | 0 | 0.0 | 6.4 | 0.00 | 0.00 | 0.00 | 39 | 1006.6 |
| 20260505012516 | 26 | 122 | 1.6 | 6.4 | 0.00 | 0.00 | 0.00 | 35 | 1006.5 |
| 20260505012016 | 26 | 101 | 0.0 | 4.8 | 0.00 | 0.00 | 0.00 | 33 | 1006.5 |
| 20260505011539 | 26 | 0 | 0.0 | 4.8 | 0.00 | 0.00 | 0.00 | 32 | 1006.6 |
| 20260505011017 | 26 | 344 | 1.6 | 4.8 | 0.00 | 0.00 | 0.00 | 28 | 1006.6 |
| 20260505010516 | 26 | 0 | 0.0 | 4.8 | 0.00 | 0.00 | 0.00 | 35 | 1006.5 |
| 20260505010036 | 26 | 348 | 1.6 | 3.2 | 0.00 | 0.00 | 0.00 | 43 | 1006.6 |
| 20260505005516 | 26 | 118 | 0.0 | 3.2 | 0.00 | 0.00 | 0.00 | 40 | 1006.6 |
| 20260505005017 | 25 | 118 | 1.6 | 3.2 | 0.00 | 0.00 | 0.00 | 32 | 1006.6 |
| 20260505004538 | 25 | 0 | 0.0 | 3.2 | 0.00 | 0.00 | 0.00 | 32 | 1006.6 |
| 20260505004016 | 25 | 0 | 0.0 | 6.4 | 0.00 | 0.00 | 0.00 | 28 | 1006.6 |
| 20260505003515 | 25 | 118 | 1.6 | 6.4 | 0.00 | 0.00 | 0.00 | 28 | 1006.6 |
| 20260505003040 | 24 | 5 | 1.6 | 6.4 | 0.00 | 0.00 | 0.00 | 36 | 1006.6 |
| 20260505002516 | 24 | 53 | 3.2 | 12.9 | 0.00 | 0.00 | 0.00 | 44 | 1006.7 |
| 20260505002017 | 24 | 92 | 3.2 | 12.9 | 0.00 | 0.00 | 0.00 | 42 | 1006.7 |
| 20260505001532 | 25 | 112 | 8.0 | 17.7 | 0.00 | 0.00 | 0.00 | 37 | 1006.7 |
| 20260505001017 | 25 | 131 | 9.7 | 19.3 | 0.00 | 0.00 | 0.00 | 33 | 1006.7 |
| 20260505000519 | 24 | 98 | 12.9 | 19.3 | 0.00 | 0.00 | 0.00 | 37 | 1006.8 |
| 20260505000048 | 25 | 97 | 12.9 | 19.3 | 0.00 | 0.00 | 0.00 | 32 | 1006.7 |
| 20260504235516 | 26 | 91 | 11.3 | 19.3 | 0.00 | 0.00 | 0.00 | 35 | 1006.7 |
| 20260504235018 | 25 | 93 | 14.5 | 19.3 | 0.00 | 0.00 | 0.00 | 35 | 1006.6 |
| 20260504234542 | 25 | 19 | 6.4 | 17.7 | 0.00 | 0.00 | 0.00 | 36 | 1006.6 |
| 20260504234016 | 25 | 92 | 11.3 | 17.7 | 0.00 | 0.00 | 0.00 | 33 | 1006.6 |
| 20260504233516 | 26 | 113 | 11.3 | 17.7 | 0.00 | 0.00 | 0.00 | 31 | 1006.7 |
| 20260504233048 | 27 | 63 | 4.8 | 12.9 | 0.00 | 0.00 | 0.00 | 31 | 1006.7 |
| 20260504232517 | 27 | 352 | 8.0 | 20.9 | 0.00 | 0.00 | 0.00 | 27 | 1006.7 |
| 20260504232017 | 26 | 335 | 14.5 | 20.9 | 0.00 | 0.00 | 0.00 | 28 | 1006.8 |
| 20260504231534 | 26 | 329 | 9.7 | 16.1 | 0.00 | 0.00 | 0.00 | 34 | 1006.8 |
| 20260504231016 | 27 | 333 | 4.8 | 16.1 | 0.00 | 0.00 | 0.00 | 26 | 1006.8 |
| 20260504230516 | 27 | 360 | 8.0 | 19.3 | 0.00 | 0.00 | 0.00 | 24 | 1006.9 |
| 20260504230035 | 26 | 342 | 8.0 | 19.3 | 0.00 | 0.00 | 0.00 | 25 | 1006.9 |
| 20260504225516 | 26 | 352 | 11.3 | 22.5 | 0.00 | 0.00 | 0.00 | 30 | 1006.9 |
| 20260504225016 | 26 | 352 | 9.7 | 22.5 | 0.00 | 0.00 | 0.00 | 26 | 1006.9 |
| 20260504224540 | 26 | 299 | 12.9 | 27.4 | 0.00 | 0.00 | 0.00 | 24 | 1006.9 |
| 20260504224016 | 26 | 5 | 6.4 | 27.4 | 0.00 | 0.00 | 0.00 | 24 | 1007.0 |
| 20260504223516 | 26 | 35 | 14.5 | 27.4 | 0.00 | 0.00 | 0.00 | 27 | 1007.0 |
| 20260504223053 | 26 | 342 | 11.3 | 22.5 | 0.00 | 0.00 | 0.00 | 24 | 1007.1 |
| 20260504222516 | 26 | 320 | 12.9 | 22.5 | 0.00 | 0.00 | 0.00 | 25 | 1007.1 |
| 20260504222020 | 26 | 306 | 14.5 | 24.1 | 0.00 | 0.00 | 0.00 | 25 | 1007.2 |
| 20260504221538 | 26 | 321 | 16.1 | 24.1 | 0.00 | 0.00 | 0.00 | 29 | 1007.3 |
| 20260504221018 | 26 | 302 | 11.3 | 19.3 | 0.00 | 0.00 | 0.00 | 27 | 1007.2 |
| 20260504220517 | 26 | 310 | 12.9 | 19.3 | 0.00 | 0.00 | 0.00 | 27 | 1007.4 |
| 20260504220034 | 26 | 254 | 11.3 | 17.7 | 0.00 | 0.00 | 0.00 | 27 | 1007.3 |
| 20260504215517 | 26 | 340 | 8.0 | 17.7 | 0.00 | 0.00 | 0.00 | 24 | 1007.4 |
| 20260504215015 | 26 | 327 | 6.4 | 19.3 | 0.00 | 0.00 | 0.00 | 29 | 1007.4 |
| 20260504214533 | 26 | 47 | 6.4 | 19.3 | 0.00 | 0.00 | 0.00 | 25 | 1007.5 |
| 20260504214016 | 26 | 10 | 9.7 | 20.9 | 0.00 | 0.00 | 0.00 | 31 | 1007.5 |
| 20260504213516 | 26 | 331 | 6.4 | 20.9 | 0.00 | 0.00 | 0.00 | 27 | 1007.6 |
| 20260504213046 | 26 | 352 | 11.3 | 20.9 | 0.00 | 0.00 | 0.00 | 27 | 1007.6 |
| 20260504212520 | 26 | 311 | 12.9 | 20.9 | 0.00 | 0.00 | 0.00 | 29 | 1007.6 |
| 20260504212018 | 26 | 296 | 4.8 | 16.1 | 0.00 | 0.00 | 0.00 | 27 | 1007.5 |
| 20260504211536 | 26 | 360 | 8.0 | 17.7 | 0.00 | 0.00 | 0.00 | 25 | 1007.6 |
| 20260504211017 | 26 | 265 | 9.7 | 17.7 | 0.00 | 0.00 | 0.00 | 24 | 1007.6 |
| 20260504210517 | 26 | 272 | 1.6 | 14.5 | 0.00 | 0.00 | 0.00 | 28 | 1007.6 |
| 20260504210038 | 26 | 32 | 3.2 | 14.5 | 0.00 | 0.00 | 0.00 | 29 | 1007.6 |
| 20260504205517 | 26 | 350 | 4.8 | 22.5 | 0.00 | 0.00 | 0.00 | 28 | 1007.6 |
| 20260504205017 | 26 | 325 | 11.3 | 22.5 | 0.00 | 0.00 | 0.00 | 25 | 1007.7 |
| 20260504204543 | 26 | 281 | 11.3 | 20.9 | 0.00 | 0.00 | 0.00 | 30 | 1007.7 |
| 20260504204021 | 26 | 0 | 0.0 | 16.1 | 0.00 | 0.00 | 0.00 | 26 | 1007.8 |
| 20260504203514 | 26 | 346 | 4.8 | 17.7 | 0.00 | 0.00 | 0.00 | 28 | 1007.8 |
| 20260504203044 | 25 | 352 | 8.0 | 20.9 | 0.00 | 0.00 | 0.00 | 28 | 1007.8 |
| 20260504202516 | 25 | 334 | 9.7 | 20.9 | 0.00 | 0.00 | 0.00 | 25 | 1007.9 |
| 20260504202017 | 26 | 317 | 8.0 | 16.1 | 0.00 | 0.00 | 0.00 | 29 | 1007.8 |
| 20260504201535 | 25 | 31 | 3.2 | 14.5 | 0.00 | 0.00 | 0.00 | 28 | 1007.9 |
| 20260504201020 | 25 | 19 | 4.8 | 17.7 | 0.00 | 0.00 | 0.00 | 28 | 1007.9 |
| 20260504200514 | 25 | 350 | 4.8 | 17.7 | 0.00 | 0.00 | 0.00 | 26 | 1007.9 |
| 20260504200034 | 25 | 352 | 4.8 | 16.1 | 0.00 | 0.00 | 0.00 | 29 | 1008.0 |
| 20260504195516 | 25 | 360 | 1.6 | 11.3 | 0.00 | 0.00 | 0.00 | 30 | 1008.0 |
| 20260504195017 | 25 | 12 | 3.2 | 11.3 | 0.00 | 0.00 | 0.00 | 32 | 1007.9 |
| 20260504194535 | 25 | 223 | 3.2 | 17.7 | 0.00 | 0.00 | 0.00 | 30 | 1007.9 |
| 20260504194018 | 25 | 305 | 6.4 | 20.9 | 0.00 | 0.00 | 0.00 | 30 | 1008.0 |
| 20260504193518 | 25 | 333 | 16.1 | 20.9 | 0.00 | 0.00 | 0.00 | 33 | 1008.0 |
| 20260504193031 | 25 | 290 | 6.4 | 14.5 | 0.00 | 0.00 | 0.00 | 33 | 1008.0 |
| 20260504192516 | 25 | 319 | 8.0 | 14.5 | 0.00 | 0.00 | 0.00 | 33 | 1008.0 |
| 20260504192016 | 24 | 263 | 4.8 | 16.1 | 0.00 | 0.00 | 0.00 | 32 | 1008.0 |
| 20260504191537 | 24 | 298 | 4.8 | 16.1 | 0.00 | 0.00 | 0.00 | 31 | 1008.0 |
| 20260504191017 | 24 | 324 | 9.7 | 17.7 | 0.00 | 0.00 | 0.00 | 33 | 1008.0 |
| 20260504190516 | 24 | 331 | 6.4 | 17.7 | 0.00 | 0.00 | 0.00 | 30 | 1008.2 |
| 20260504190037 | 24 | 14 | 6.4 | 16.1 | 0.00 | 0.00 | 0.00 | 37 | 1008.1 |
| 20260504185514 | 24 | 348 | 8.0 | 17.7 | 0.00 | 0.00 | 0.00 | 38 | 1008.1 |
| 20260504185015 | 24 | 331 | 6.4 | 20.9 | 0.00 | 0.00 | 0.00 | 34 | 1008.2 |
| 20260504184530 | 23 | 333 | 14.5 | 20.9 | 0.00 | 0.00 | 0.00 | 37 | 1008.3 |
| 20260504184015 | 23 | 336 | 9.7 | 19.3 | 0.00 | 0.00 | 0.00 | 38 | 1008.3 |
| 20260504183517 | 23 | 336 | 12.9 | 19.3 | 0.00 | 0.00 | 0.00 | 37 | 1008.5 |
| 20260504183034 | 23 | 315 | 9.7 | 19.3 | 0.00 | 0.00 | 0.00 | 38 | 1008.5 |
| 20260504182516 | 23 | 317 | 9.7 | 17.7 | 0.00 | 0.00 | 0.00 | 39 | 1008.6 |
| 20260504182015 | 23 | 338 | 11.3 | 17.7 | 0.00 | 0.00 | 0.00 | 40 | 1008.6 |
| 20260504181542 | 23 | 360 | 9.7 | 20.9 | 0.00 | 0.00 | 0.00 | 39 | 1008.5 |
| 20260504181015 | 22 | 302 | 9.7 | 20.9 | 0.00 | 0.00 | 0.00 | 39 | 1008.5 |
| 20260504180515 | 22 | 304 | 4.8 | 14.5 | 0.00 | 0.00 | 0.00 | 39 | 1008.7 |
| 20260504180033 | 22 | 324 | 6.4 | 17.7 | 0.00 | 0.00 | 0.00 | 40 | 1008.8 |
| 20260504175515 | 21 | 324 | 9.7 | 17.7 | 0.00 | 0.00 | 0.00 | 42 | 1008.9 |
| 20260504175015 | 21 | 334 | 9.7 | 17.7 | 0.00 | 0.00 | 0.00 | 41 | 1008.8 |
| 20260504174530 | 21 | 352 | 6.4 | 16.1 | 0.00 | 0.00 | 0.00 | 45 | 1008.9 |
| 20260504174015 | 21 | 305 | 8.0 | 16.1 | 0.00 | 0.00 | 0.00 | 43 | 1009.0 |
| 20260504173515 | 21 | 330 | 6.4 | 14.5 | 0.00 | 0.00 | 0.00 | 43 | 1008.9 |
| 20260504173032 | 20 | 319 | 6.4 | 12.9 | 0.00 | 0.00 | 0.00 | 42 | 1009.1 |
| 20260504172514 | 20 | 349 | 6.4 | 12.9 | 0.00 | 0.00 | 0.00 | 43 | 1009.2 |
| 20260504172017 | 20 | 326 | 1.6 | 8.0 | 0.00 | 0.00 | 0.00 | 44 | 1009.2 |
| 20260504171535 | 20 | 319 | 3.2 | 9.7 | 0.00 | 0.00 | 0.00 | 46 | 1009.2 |
| 20260504171016 | 20 | 351 | 4.8 | 9.7 | 0.00 | 0.00 | 0.00 | 45 | 1009.2 |
| 20260504170517 | 19 | 341 | 4.8 | 14.5 | 0.00 | 0.00 | 0.00 | 44 | 1009.2 |
| 20260504151015 | 11 | 323 | 6.4 | 8.0 | 0.00 | 0.00 | 0.00 | 72 | 1010.0 |
| 20260504150513 | 11 | 330 | 4.8 | 8.0 | 0.00 | 0.00 | 0.00 | 74 | 1010.0 |
| 20260504141015 | 7 | 321 | 3.2 | 8.0 | 0.00 | 0.00 | 0.00 | 86 | 1009.9 |
| 20260504140512 | 6 | 336 | 4.8 | 8.0 | 0.00 | 0.00 | 0.00 | 87 | 1010.0 |
| 20260504130512 | 3 | 0 | 0.0 | 0.0 | 0.00 | 0.00 | 0.00 | 91 | 1009.8 |
| 20260504110516 | 5 | 0 | 0.0 | 1.6 | 0.00 | 0.00 | 0.00 | 89 | 1009.1 |
| 20260504100517 | 5 | 145 | 1.6 | 4.8 | 0.00 | 0.00 | 0.00 | 87 | 1008.9 |